GW0020 Weather Reports


time (UTC)temp
C
wind
direction
speed
KPH
gust
KPH
rain 1hr
cm
rain 24hr
cm
rain mn
cm
humidity
%
barometer
mb
20260506091548 23 0 0.0 1.6 0.00 0.00 0.00 86 1009.1
20260506090044 23 143 0.0 3.2 0.00 0.00 0.00 86 1009.0
20260506084616 23 155 0.0 4.8 0.00 0.00 0.00 86 1008.7
20260506083052 23 133 1.6 8.0 0.00 0.00 0.00 86 1008.9
20260506081556 23 169 0.0 4.8 0.00 0.00 0.00 85 1008.8
20260506073046 23 232 3.2 12.9 0.00 0.00 0.00 86 1009.0
20260506071544 23 198 1.6 8.0 0.00 0.00 0.00 86 1009.2
20260506061548 23 158 3.2 9.7 0.00 0.00 0.00 85 1009.0
20260506044547 23 131 1.6 4.8 0.00 0.00 0.00 86 1009.1
20260506043053 23 151 1.6 6.4 0.00 0.00 0.00 86 1009.0
20260506041602 23 0 0.0 4.8 0.00 0.00 0.00 85 1008.9
20260506040050 23 0 0.0 4.8 0.00 0.00 0.00 85 1008.9
20260506034544 24 141 1.6 4.8 0.00 0.00 0.00 84 1008.6
20260506033048 24 143 1.6 4.8 0.00 0.00 0.00 83 1008.4
20260506031551 24 131 0.0 4.8 0.00 0.00 0.00 82 1008.3
20260506030053 24 162 1.6 4.8 0.00 0.00 0.00 81 1008.0
20260506024552 24 0 0.0 0.0 0.00 0.00 0.00 81 1008.0
20260506023106 25 0 0.0 3.2 0.00 0.00 0.00 80 1007.7
20260506021609 25 134 0.0 3.2 0.00 0.00 0.00 80 1007.4
20260506020054 25 0 0.0 1.6 0.00 0.00 0.00 79 1007.3
20260506014551 25 172 0.0 3.2 0.00 0.00 0.00 77 1006.9
20260506013100 25 133 0.0 3.2 0.00 0.00 0.00 76 1006.9
20260506011615 26 135 0.0 3.2 0.00 0.00 0.00 74 1006.8
20260506010057 26 0 0.0 6.4 0.00 0.00 0.00 74 1006.8
20260506004553 27 156 0.0 4.8 0.00 0.00 0.00 73 1006.8
20260506003056 27 0 0.0 3.2 0.00 0.00 0.00 72 1006.8
20260506001556 27 0 0.0 4.8 0.00 0.00 0.00 71 1007.0
20260506000054 27 197 1.6 6.4 0.00 0.00 0.00 70 1006.8
20260505234553 27 0 0.0 4.8 0.00 0.00 0.00 69 1006.9
20260505233050 27 219 1.6 8.0 0.00 0.00 0.00 69 1006.6
20260505231604 28 162 3.2 9.7 0.00 0.00 0.00 68 1006.5
20260505230051 28 156 1.6 9.7 0.00 0.00 0.00 68 1006.5
20260505224555 28 194 1.6 6.4 0.00 0.00 0.00 68 1006.2
20260505223048 28 160 1.6 6.4 0.00 0.00 0.00 68 1006.3
20260505221551 28 228 3.2 8.0 0.00 0.00 0.00 67 1006.0
20260505220057 29 105 3.2 11.3 0.00 0.00 0.00 67 1006.4
20260505214556 29 131 4.8 9.7 0.00 0.00 0.00 66 1006.5
20260505213053 30 89 3.2 9.7 0.00 0.00 0.00 66 1006.6
20260505211548 31 193 3.2 6.4 0.00 0.00 0.00 65 1006.8
20260505210051 30 153 1.6 9.7 0.00 0.00 0.00 66 1007.0
20260505204554 30 155 4.8 9.7 0.00 0.00 0.00 64 1007.2
20260505203117 30 192 3.2 11.3 0.00 0.00 0.00 64 1007.3
20260505201554 30 217 3.2 8.0 0.00 0.00 0.00 63 1007.5
20260505200054 30 195 1.6 9.7 0.00 0.00 0.00 66 1007.6
20260505194551 30 250 3.2 11.3 0.00 0.00 0.00 64 1007.8
20260505193051 29 160 4.8 8.0 0.00 0.00 0.00 66 1008.1
20260505191600 29 114 3.2 14.5 0.00 0.00 0.00 67 1008.2
20260505190054 28 157 3.2 9.7 0.00 0.00 0.00 67 1008.4
20260505184600 28 165 3.2 8.0 0.00 0.00 0.00 67 1008.5
20260505183054 27 178 3.2 9.7 0.00 0.00 0.00 69 1008.9
20260505181555 27 328 1.6 11.3 0.00 0.00 0.00 70 1009.1
20260505180052 26 138 3.2 9.7 0.00 0.00 0.00 73 1009.2
20260505174555 26 158 0.0 9.7 0.00 0.00 0.00 74 1009.5
20260505173057 25 129 1.6 8.0 0.00 0.00 0.00 76 1009.5
20260505171552 24 203 1.6 9.7 0.00 0.00 0.00 77 1009.6
20260505170107 23 184 1.6 8.0 0.00 0.00 0.00 79 1009.7
20260505164555 23 88 1.6 11.3 0.00 0.00 0.00 80 1009.6
20260505163053 23 291 1.6 6.4 0.00 0.00 0.00 81 1009.6
20260505161614 22 162 1.6 8.0 0.00 0.00 0.00 82 1009.8
20260505153101 22 224 0.0 4.8 0.00 0.00 0.00 84 1009.6
20260505151559 22 346 0.0 6.4 0.00 0.00 0.00 84 1009.5
20260505130105 21 112 1.6 6.4 0.00 0.00 0.00 85 1008.4
20260505124608 21 231 1.6 6.4 0.00 0.00 0.00 85 1008.3
20260505123105 21 231 1.6 8.0 0.00 0.00 0.00 86 1008.2
20260505121608 20 133 1.6 9.7 0.00 0.00 0.00 86 1007.8
20260505120048 20 165 0.0 8.0 0.00 0.00 0.00 86 1007.6
20260505114552 20 192 1.6 6.4 0.00 0.00 0.00 86 1007.4
20260505113050 20 129 1.6 11.3 0.00 0.00 0.00 86 1007.4
20260505111553 21 137 3.2 8.0 0.00 0.00 0.00 85 1007.5
20260505101555 21 153 1.6 6.4 0.00 0.00 0.00 85 1007.7
20260505100058 21 133 0.0 6.4 0.00 0.00 0.00 85 1007.9
20260505094555 21 103 1.6 9.7 0.00 0.00 0.00 85 1007.8
20260505093051 21 234 1.6 9.7 0.00 0.00 0.00 85 1008.0